Weather Roundup
Issued by NWS Chicago, IL

Home | Current Version | Previous Version | Text Only | Print | Product List | Glossary Off
Versions: 1 2 3 4 5 6 7 8 9 10 11 12 13 14 15 16 17 18 19 20 21 22 23 24 25 26 27 28 29 30 31 32 33 34 35 36 37 38 39 40 41 42 43 44 45 46 47 48 49 50

063
NZUS59 KLOT 161108
HRRLOT

CHICAGO AREA WEATHER ROUNDUP
NATIONAL WEATHER SERVICE CHICAGO/ROMEOVILLE IL
600 AM CDT WED AUG 16 2017

NOTE: "FAIR" INDICATES FEW OR NO CLOUDS BELOW 12,000 FEET WITH NO
SIGNIFICANT WEATHER AND/OR OBSTRUCTIONS TO VISIBILITY.

* THESE STATIONS ARE NOT UNDER NWS QUALITY CONTROL. THEY ALSO MAY NOT
  REPORT WEATHER SUCH AS PRECIPITATION OR FOG.

ILZ005-006-012>014-019>023-161200-
NORTHEAST ILLINOIS

CITY           SKY/WX    TMP DP  RH WIND       PRES   REMARKS
OHARE          PTCLDY    67  62  84 N5        30.01R
MIDWAY         PTCLDY    71  66  84 NE5       30.00R
AURORA         MOCLDY    63  63 100 NE6       30.00R
LANSING*       CLEAR     65  61  86 CALM      30.01R
JOLIET*        CLEAR     68  66  91 CALM      29.99R
WAUKEGAN       PTCLDY    59  59 100 CALM      30.01R
DUPAGE AIRPORT MOCLDY    63  63 100 N5        30.00S
WHEELING       PTCLDY    63  63 100 CALM      30.02R
MORRIS*        PTCLDY    63  62  96 CALM      29.98S FOG
LEWIS AIRPORT* CLEAR     65  62  90 E6        30.00R
NORTHERLY ISL    N/A     71  65  81 NE6         N/A
$$

WIZ051-052-058>065-066-070>072-161200-
SOUTHEAST WISCONSIN

CITY           SKY/WX    TMP DP  RH WIND       PRES   REMARKS
MILWAUKEE      PTCLDY    63  59  87 NW5       30.03R
KENOSHA*       PTCLDY    61  58  90 CALM      30.03R
RACINE*        CLEAR     60  58  92 CALM      30.04R
WAUKESHA       PTCLDY    55  55 100 CALM      30.04R
WEST BEND        N/A     54  54 100 CALM      30.04S FOG
$$

INZ001>003-010>013-019-020-161200-
NORTHWEST INDIANA

CITY           SKY/WX    TMP DP  RH WIND       PRES   REMARKS
GARY*          PTCLDY    64  63  94 CALM      30.01R
MICHIGAN CITY* NOT AVBL
RENSSELAER*    NOT AVBL
VALPARAISO     MOCLDY    64  61  90 NE5       30.01S
$$

LMZ740>746-161200-
SOUTHERN LAKE MICHIGAN

STATION/POSITION TIME  SKY/WX   TEMP WIND        PRES    VSBY
                                AIR  DIR/SP/G
                 (UTC)          (F)  (DEG/KT/KT) (MB)    (MI)
HARRISON CRIB    1040            72   80/  7/  8   N/A
BURNHAM HARBOR   NOT AVBL
CALUMET HARBOR   1048            72   50/  5/  7 1015.5R
BURNS HARBOR     1040            69   90/  5/  7 1016.3S
MICHIGAN CITY    1040            66   60/  3/  4   N/A
$$

ABBREVIATIONS USED IN REMARKS
   TC - TEMPERATURE IN CELSIUS
  WCI - WIND CHILL INDEX
   HX - HEAT INDEX
  VSB - VISIBILITY
$$




USA.gov is the U.S. government's official web portal to all federal, state and local government web resources and services.